| time (UTC) | temp F | wind direction | speed knots | gust knots | rain 1hr in | rain 24hr in | rain mn in | humidity % | barometer mb |
| 20260906171536 | 91 | 345 | 3.5 | 10.4 | 0.00 | 0.00 | 0.00 | 42 | 1009.8 |
| 20260906170030 | 90 | 288 | 4.3 | 10.4 | 0.00 | 0.00 | 0.00 | 43 | 1009.5 |
| 20260906163027 | 89 | 273 | 7.0 | 11.3 | 0.00 | 0.00 | 0.00 | 48 | 1009.3 |
| 20260906161524 | 87 | 297 | 7.0 | 13.0 | 0.00 | 0.00 | 0.00 | 51 | 1009.1 |
| 20260906160020 | 87 | 302 | 7.0 | 11.3 | 0.00 | 0.00 | 0.00 | 53 | 1009.1 |
| 20260906153020 | 87 | 342 | 5.2 | 10.4 | 0.00 | 0.00 | 0.00 | 53 | 1008.9 |
| 20260906151518 | 87 | 331 | 3.5 | 8.7 | 0.00 | 0.00 | 0.00 | 54 | 1008.9 |
| 20260906150015 | 86 | 292 | 5.2 | 10.4 | 0.00 | 0.00 | 0.00 | 53 | 1008.9 |
| 20260906143012 | 86 | 308 | 7.0 | 10.4 | 0.00 | 0.00 | 0.00 | 50 | 1008.8 |
| 20260906141512 | 86 | 304 | 8.7 | 12.2 | 0.00 | 0.00 | 0.00 | 50 | 1008.5 |
| 20260906140004 | 85 | 291 | 4.3 | 8.7 | 0.00 | 0.00 | 0.00 | 52 | 1008.4 |
| 20260906133001 | 84 | 317 | 3.5 | 7.8 | 0.00 | 0.00 | 0.00 | 55 | 1007.8 |
| 20260906131614 | 85 | 328 | 3.5 | 7.8 | 0.00 | 0.00 | 0.00 | 55 | 1007.7 |
| 20260906130105 | 85 | 289 | 5.2 | 9.6 | 0.00 | 0.00 | 0.00 | 53 | 1007.7 |
| 20260906123055 | 85 | 304 | 7.0 | 14.8 | 0.00 | 0.00 | 0.00 | 52 | 1007.8 |
| 20260906121552 | 86 | 293 | 6.1 | 10.4 | 0.00 | 0.00 | 0.00 | 51 | 1007.6 |
| 20260906120056 | 87 | 265 | 7.0 | 10.4 | 0.00 | 0.00 | 0.00 | 48 | 1007.7 |
| 20260906114643 | 89 | 263 | 7.0 | 12.2 | 0.00 | 0.00 | 0.00 | 44 | 1007.9 |
| 20260906113043 | 90 | 292 | 6.1 | 13.0 | 0.00 | 0.00 | 0.00 | 42 | 1007.7 |
| 20260906111542 | 90 | 298 | 4.3 | 8.7 | 0.00 | 0.00 | 0.00 | 39 | 1007.8 |
| 20260906110041 | 90 | 303 | 2.6 | 7.8 | 0.00 | 0.00 | 0.00 | 40 | 1007.6 |
| 20260906103040 | 89 | 318 | 1.7 | 7.8 | 0.00 | 0.00 | 0.00 | 36 | 1007.4 |
| 20260906101539 | 89 | 5 | 1.7 | 7.0 | 0.00 | 0.00 | 0.00 | 36 | 1007.3 |
| 20260906100040 | 89 | 305 | 2.6 | 5.2 | 0.00 | 0.00 | 0.00 | 36 | 1007.4 |
| 20260906093048 | 89 | 294 | 5.2 | 8.7 | 0.00 | 0.00 | 0.00 | 35 | 1007.6 |
| 20260906091534 | 89 | 299 | 2.6 | 7.8 | 0.00 | 0.00 | 0.00 | 36 | 1007.6 |
| 20260906090034 | 89 | 303 | 2.6 | 8.7 | 0.00 | 0.00 | 0.00 | 36 | 1007.6 |
| 20260906083031 | 89 | 257 | 3.5 | 10.4 | 0.00 | 0.00 | 0.00 | 39 | 1007.9 |
| 20260906081533 | 88 | 320 | 5.2 | 9.6 | 0.00 | 0.00 | 0.00 | 39 | 1008.0 |
| 20260906080027 | 88 | 298 | 5.2 | 10.4 | 0.00 | 0.00 | 0.00 | 41 | 1008.0 |
| 20260906073024 | 90 | 304 | 7.0 | 13.0 | 0.00 | 0.00 | 0.00 | 41 | 1008.3 |
| 20260906071516 | 92 | 268 | 7.0 | 13.0 | 0.00 | 0.00 | 0.00 | 35 | 1008.3 |
| 20260906070012 | 92 | 284 | 7.8 | 13.9 | 0.00 | 0.00 | 0.00 | 32 | 1008.2 |
| 20260906063012 | 92 | 275 | 7.0 | 13.9 | 0.00 | 0.00 | 0.00 | 31 | 1008.0 |
| 20260906061511 | 92 | 323 | 5.2 | 9.6 | 0.00 | 0.00 | 0.00 | 31 | 1008.0 |
| 20260906060020 | 92 | 271 | 6.1 | 12.2 | 0.00 | 0.00 | 0.00 | 31 | 1007.9 |
| 20260906054614 | 93 | 236 | 7.0 | 14.8 | 0.00 | 0.00 | 0.00 | 30 | 1008.0 |
| 20260906053019 | 93 | 263 | 7.8 | 13.9 | 0.00 | 0.00 | 0.00 | 30 | 1008.1 |
| 20260906051509 | 92 | 293 | 8.7 | 14.8 | 0.00 | 0.00 | 0.00 | 30 | 1008.0 |
| 20260906050008 | 93 | 335 | 7.8 | 13.0 | 0.00 | 0.00 | 0.00 | 30 | 1008.0 |
| 20260906043012 | 94 | 274 | 7.8 | 13.0 | 0.00 | 0.00 | 0.00 | 29 | 1007.7 |
| 20260906041512 | 94 | 288 | 8.7 | 12.2 | 0.00 | 0.00 | 0.00 | 29 | 1007.7 |
| 20260906040008 | 94 | 309 | 7.0 | 13.0 | 0.00 | 0.00 | 0.00 | 29 | 1007.3 |
| 20260906034608 | 94 | 275 | 7.8 | 13.0 | 0.00 | 0.00 | 0.00 | 29 | 1007.2 |
| 20260906033009 | 95 | 266 | 7.0 | 13.9 | 0.00 | 0.00 | 0.00 | 28 | 1007.0 |
| 20260906031505 | 95 | 302 | 7.0 | 14.8 | 0.00 | 0.00 | 0.00 | 28 | 1006.9 |
| 20260906030005 | 96 | 300 | 6.1 | 12.2 | 0.00 | 0.00 | 0.00 | 28 | 1006.8 |
| 20260906023003 | 97 | 296 | 9.6 | 15.6 | 0.00 | 0.00 | 0.00 | 26 | 1006.4 |
| 20260906021507 | 98 | 285 | 10.4 | 15.6 | 0.00 | 0.00 | 0.00 | 26 | 1006.2 |
| 20260906020002 | 99 | 278 | 7.8 | 12.2 | 0.00 | 0.00 | 0.00 | 25 | 1006.2 |
| 20260906014700 | 100 | 251 | 0.0 | 8.7 | 0.00 | 0.00 | 0.00 | 21 | 1006.5 |
| 20260906013059 | 100 | 122 | 4.3 | 10.4 | 0.00 | 0.00 | 0.00 | 20 | 1006.3 |
| 20260906011612 | 100 | 128 | 7.0 | 10.4 | 0.00 | 0.00 | 0.00 | 20 | 1006.3 |
| 20260906010057 | 101 | 109 | 7.0 | 10.4 | 0.00 | 0.00 | 0.00 | 20 | 1006.3 |
| 20260906004559 | 101 | 97 | 6.1 | 8.7 | 0.00 | 0.00 | 0.00 | 20 | 1006.3 |
| 20260906003056 | 102 | 101 | 1.7 | 7.0 | 0.00 | 0.00 | 0.00 | 20 | 1006.3 |
| 20260906001654 | 101 | 104 | 6.1 | 8.7 | 0.00 | 0.00 | 0.00 | 21 | 1006.3 |
| 20260906000056 | 101 | 117 | 7.0 | 11.3 | 0.00 | 0.00 | 0.00 | 21 | 1006.3 |
| 20260905234555 | 101 | 88 | 3.5 | 10.4 | 0.00 | 0.00 | 0.00 | 21 | 1006.3 |
| 20260905233111 | 102 | 102 | 3.5 | 8.7 | 0.00 | 0.00 | 0.00 | 20 | 1006.4 |
| 20260905231650 | 100 | 101 | 5.2 | 9.6 | 0.00 | 0.00 | 0.00 | 21 | 1006.5 |
| 20260905230047 | 100 | 135 | 3.5 | 9.6 | 0.00 | 0.00 | 0.00 | 21 | 1006.8 |
| 20260905224605 | 100 | 98 | 4.3 | 7.8 | 0.00 | 0.00 | 0.00 | 21 | 1006.9 |
| 20260905223042 | 100 | 67 | 5.2 | 9.6 | 0.00 | 0.00 | 0.00 | 21 | 1007.1 |
| 20260905220048 | 100 | 123 | 0.9 | 8.7 | 0.00 | 0.00 | 0.00 | 20 | 1007.4 |
| 20260905214542 | 100 | 159 | 4.3 | 8.7 | 0.00 | 0.00 | 0.00 | 20 | 1007.5 |
| 20260905213039 | 100 | 132 | 5.2 | 11.3 | 0.00 | 0.00 | 0.00 | 20 | 1007.9 |
| 20260905211638 | 99 | 108 | 5.2 | 10.4 | 0.00 | 0.00 | 0.00 | 19 | 1008.0 |
| 20260905210034 | 99 | 101 | 7.0 | 12.2 | 0.00 | 0.00 | 0.00 | 19 | 1008.1 |
| 20260905204531 | 99 | 132 | 5.2 | 11.3 | 0.00 | 0.00 | 0.00 | 19 | 1008.1 |
| 20260905203030 | 99 | 104 | 5.2 | 10.4 | 0.00 | 0.00 | 0.00 | 18 | 1008.3 |
| 20260905201626 | 98 | 82 | 1.7 | 7.0 | 0.00 | 0.00 | 0.00 | 19 | 1008.5 |
| 20260905200024 | 98 | 148 | 3.5 | 7.0 | 0.00 | 0.00 | 0.00 | 20 | 1008.8 |
| 20260905194522 | 97 | 97 | 4.3 | 8.7 | 0.00 | 0.00 | 0.00 | 20 | 1008.8 |
| 20260905193020 | 97 | 99 | 5.2 | 9.6 | 0.00 | 0.00 | 0.00 | 19 | 1009.2 |
| 20260905191620 | 98 | 151 | 5.2 | 9.6 | 0.00 | 0.00 | 0.00 | 19 | 1009.2 |
| 20260905190021 | 97 | 156 | 5.2 | 11.3 | 0.00 | 0.00 | 0.00 | 18 | 1009.4 |
| 20260905184521 | 97 | 140 | 6.1 | 10.4 | 0.00 | 0.00 | 0.00 | 16 | 1009.6 |
| 20260905183014 | 96 | 132 | 6.1 | 9.6 | 0.00 | 0.00 | 0.00 | 15 | 1009.5 |
| 20260905181612 | 95 | 119 | 6.1 | 9.6 | 0.00 | 0.00 | 0.00 | 15 | 1009.6 |
| 20260905180004 | 94 | 136 | 4.3 | 8.7 | 0.00 | 0.00 | 0.00 | 15 | 1009.9 |
| 20260905174601 | 92 | 144 | 2.6 | 6.1 | 0.00 | 0.00 | 0.00 | 16 | 1009.8 |
| 20260905173058 | 92 | 120 | 1.7 | 6.1 | 0.00 | 0.00 | 0.00 | 16 | 1009.7 |